Time,TemperatureF,DewpointF,PressureIn,WindDirection,WindDirectionDegrees,WindSpeedMPH,WindSpeedGustMPH,Humidity,HourlyPrecipIn,Conditions,Clouds,dailyrainin,SoftwareType,DateUTC
2013-04-30 00:02:00,70.0,59.0,29.49,South,181,3.0,10.0,67,0.00,,,0.00,,2013-04-30 05:02:00,
2013-04-30 00:12:00,70.0,59.0,29.49,South,181,3.0,10.0,67,0.00,,,0.00,,2013-04-30 05:12:00,
2013-04-30 00:22:00,70.0,59.0,29.48,ESE,121,3.0,11.0,69,0.00,,,0.00,,2013-04-30 05:22:00,
2013-04-30 00:31:00,69.0,59.0,29.48,South,177,2.0,8.0,70,0.00,,,0.00,,2013-04-30 05:31:00,
2013-04-30 00:42:00,69.0,59.0,29.48,South,177,2.0,8.0,70,0.00,,,0.00,,2013-04-30 05:42:00,
2013-04-30 00:51:00,69.0,59.0,29.48,SE,139,4.0,8.0,71,0.00,,,0.00,,2013-04-30 05:51:00,
2013-04-30 01:02:00,68.0,59.0,29.47,ESE,117,2.0,7.0,72,0.00,,,0.00,,2013-04-30 06:02:00,
2013-04-30 01:12:00,68.0,59.0,29.47,ESE,117,2.0,7.0,72,0.00,,,0.00,,2013-04-30 06:12:00,
2013-04-30 01:21:00,68.0,59.0,29.47,SSE,149,2.0,7.0,73,0.00,,,0.00,,2013-04-30 06:21:00,
2013-04-30 01:32:00,67.0,58.0,29.47,ESE,113,3.0,7.0,74,0.00,,,0.00,,2013-04-30 06:32:00,
2013-04-30 01:41:00,67.0,58.0,29.47,ESE,113,3.0,7.0,74,0.00,,,0.00,,2013-04-30 06:41:00,
2013-04-30 01:52:00,67.0,59.0,29.47,SE,135,3.0,9.0,75,0.00,,,0.00,,2013-04-30 06:52:00,
2013-04-30 02:01:00,66.0,58.0,29.47,SSE,153,3.0,10.0,76,0.00,,,0.00,,2013-04-30 07:01:00,
2013-04-30 02:11:00,66.0,58.0,29.47,SSE,153,3.0,10.0,76,0.00,,,0.00,,2013-04-30 07:11:00,
2013-04-30 02:21:00,66.0,59.0,29.47,SSE,165,3.0,10.0,77,0.00,,,0.00,,2013-04-30 07:21:00,
2013-04-30 02:31:00,66.0,59.0,29.46,SE,130,2.0,6.0,78,0.00,,,0.00,,2013-04-30 07:31:00,
2013-04-30 02:42:00,66.0,59.0,29.46,SE,130,2.0,6.0,78,0.00,,,0.00,,2013-04-30 07:42:00,
2013-04-30 02:52:00,66.0,59.0,29.46,SSE,165,2.0,7.0,79,0.00,,,0.00,,2013-04-30 07:52:00,
2013-04-30 03:02:00,65.0,58.0,29.46,South,170,3.0,7.0,79,0.00,,,0.00,,2013-04-30 08:02:00,
2013-04-30 03:11:00,65.0,58.0,29.46,South,170,3.0,7.0,79,0.00,,,0.00,,2013-04-30 08:11:00,
2013-04-30 03:22:00,65.0,59.0,29.46,ESE,122,1.0,7.0,80,0.00,,,0.00,,2013-04-30 08:22:00,
2013-04-30 03:32:00,64.0,58.0,29.46,SSE,157,2.0,5.0,81,0.00,,,0.00,,2013-04-30 08:32:00,
2013-04-30 03:42:00,64.0,58.0,29.46,SSE,157,2.0,5.0,81,0.00,,,0.00,,2013-04-30 08:42:00,
2013-04-30 03:52:00,64.0,59.0,29.46,SE,142,0.0,3.0,83,0.00,,,0.00,,2013-04-30 08:52:00,
2013-04-30 04:01:00,63.0,58.0,29.46,SE,126,1.0,3.0,85,0.00,,,0.00,,2013-04-30 09:01:00,
2013-04-30 04:11:00,63.0,58.0,29.46,SE,126,1.0,3.0,85,0.00,,,0.00,,2013-04-30 09:11:00,
2013-04-30 04:22:00,62.0,58.0,29.46,SSE,156,2.0,5.0,86,0.00,,,0.00,,2013-04-30 09:22:00,
2013-04-30 04:33:00,62.0,58.0,29.46,SSE,152,0.0,4.0,86,0.00,,,0.00,,2013-04-30 09:33:00,
2013-04-30 04:43:00,62.0,58.0,29.46,SSE,152,0.0,4.0,86,0.00,,,0.00,,2013-04-30 09:43:00,
2013-04-30 04:52:00,62.0,58.0,29.45,SSE,157,1.0,4.0,86,0.00,,,0.00,,2013-04-30 09:52:00,
2013-04-30 05:03:00,62.0,58.0,29.45,SE,138,0.0,4.0,86,0.00,,,0.00,,2013-04-30 10:03:00,
2013-04-30 05:11:00,62.0,58.0,29.45,SE,138,0.0,4.0,86,0.00,,,0.00,,2013-04-30 10:11:00,
2013-04-30 05:22:00,62.0,58.0,29.45,SE,139,1.0,4.0,87,0.00,,,0.00,,2013-04-30 10:22:00,
2013-04-30 05:32:00,61.0,57.0,29.45,SSE,161,1.0,5.0,88,0.00,,,0.00,,2013-04-30 10:32:00,
2013-04-30 05:41:00,61.0,57.0,29.45,SSE,161,1.0,5.0,88,0.00,,,0.00,,2013-04-30 10:41:00,
2013-04-30 05:52:00,61.0,57.0,29.45,SE,136,0.0,3.0,88,0.00,,,0.00,,2013-04-30 10:52:00,
2013-04-30 06:02:00,61.0,58.0,29.46,SSE,165,0.0,3.0,89,0.00,,,0.00,,2013-04-30 11:02:00,
2013-04-30 06:11:00,61.0,58.0,29.46,SSE,165,0.0,3.0,89,0.00,,,0.00,,2013-04-30 11:11:00,
2013-04-30 06:21:00,61.0,58.0,29.46,SSE,148,2.0,4.0,89,0.00,,,0.00,,2013-04-30 11:21:00,
2013-04-30 06:31:00,60.0,57.0,29.46,SE,141,0.0,3.0,90,0.00,,,0.00,,2013-04-30 11:31:00,
2013-04-30 06:42:00,60.0,57.0,29.46,SE,141,0.0,3.0,90,0.00,,,0.00,,2013-04-30 11:42:00,
2013-04-30 06:51:00,60.0,57.0,29.47,SE,133,1.0,5.0,91,0.00,,,0.00,,2013-04-30 11:51:00,
2013-04-30 07:01:00,60.0,58.0,29.47,SE,135,0.0,4.0,92,0.00,,,0.00,,2013-04-30 12:01:00,
2013-04-30 07:11:00,60.0,58.0,29.47,SE,135,0.0,4.0,92,0.00,,,0.00,,2013-04-30 12:11:00,
2013-04-30 07:21:00,60.0,58.0,29.47,SE,132,0.0,4.0,92,0.00,,,0.00,,2013-04-30 12:21:00,
2013-04-30 07:31:00,60.0,58.0,29.48,SE,138,0.0,3.0,93,0.00,,,0.00,,2013-04-30 12:31:00,
2013-04-30 07:41:00,60.0,58.0,29.48,SE,138,0.0,3.0,93,0.00,,,0.00,,2013-04-30 12:41:00,
2013-04-30 07:51:00,60.0,58.0,29.48,SSE,165,0.0,2.0,92,0.00,,,0.00,,2013-04-30 12:51:00,
2013-04-30 08:01:00,61.0,59.0,29.48,SE,142,2.0,6.0,92,0.00,,,0.00,,2013-04-30 13:01:00,
2013-04-30 08:11:00,61.0,59.0,29.48,SE,142,2.0,6.0,92,0.00,,,0.00,,2013-04-30 13:11:00,
2013-04-30 08:21:00,62.0,60.0,29.48,South,190,2.0,7.0,92,0.00,,,0.00,,2013-04-30 13:21:00,
2013-04-30 08:31:00,63.0,60.0,29.48,SSE,154,5.0,11.0,91,0.00,,,0.00,,2013-04-30 13:31:00,
2013-04-30 08:41:00,63.0,60.0,29.48,SSE,154,5.0,11.0,91,0.00,,,0.00,,2013-04-30 13:41:00,
2013-04-30 08:51:00,63.0,61.0,29.48,SE,131,4.0,10.0,92,0.00,,,0.00,,2013-04-30 13:51:00,
2013-04-30 09:02:00,63.0,61.0,29.49,SSE,163,4.0,8.0,92,0.00,,,0.00,,2013-04-30 14:02:00,
2013-04-30 09:11:00,63.0,61.0,29.49,SSE,163,4.0,8.0,92,0.00,,,0.00,,2013-04-30 14:11:00,
2013-04-30 09:21:00,64.0,61.0,29.49,SSE,148,3.0,12.0,90,0.00,,,0.00,,2013-04-30 14:21:00,
2013-04-30 09:31:00,65.0,61.0,29.49,SSW,196,3.0,7.0,88,0.00,,,0.00,,2013-04-30 14:31:00,
2013-04-30 09:41:00,65.0,61.0,29.49,SSW,196,3.0,7.0,88,0.00,,,0.00,,2013-04-30 14:41:00,
2013-04-30 09:52:00,65.0,61.0,29.49,SE,141,4.0,11.0,86,0.00,,,0.00,,2013-04-30 14:52:00,
2013-04-30 10:01:00,66.0,61.0,29.49,South,178,4.0,9.0,85,0.00,,,0.00,,2013-04-30 15:01:00,
2013-04-30 10:11:00,66.0,61.0,29.49,South,178,4.0,9.0,85,0.00,,,0.00,,2013-04-30 15:11:00,
2013-04-30 10:21:00,67.0,62.0,29.49,ESE,106,3.0,8.0,84,0.00,,,0.00,,2013-04-30 15:21:00,
2013-04-30 10:32:00,68.0,63.0,29.48,SSE,155,3.0,9.0,83,0.00,,,0.00,,2013-04-30 15:32:00,
2013-04-30 10:42:00,68.0,63.0,29.48,SSE,155,3.0,9.0,83,0.00,,,0.00,,2013-04-30 15:42:00,
2013-04-30 10:52:00,69.0,63.0,29.48,SSE,151,2.0,9.0,82,0.00,,,0.00,,2013-04-30 15:52:00,
2013-04-30 11:02:00,68.0,62.0,29.48,South,178,3.0,8.0,81,0.00,,,0.00,,2013-04-30 16:02:00,
2013-04-30 11:12:00,68.0,62.0,29.48,South,178,3.0,8.0,81,0.00,,,0.00,,2013-04-30 16:12:00,
2013-04-30 11:23:00,69.0,63.0,29.48,SE,143,5.0,8.0,80,0.00,,,0.00,,2013-04-30 16:23:00,
2013-04-30 11:33:00,70.0,63.0,29.48,SSW,195,4.0,12.0,78,0.00,,,0.00,,2013-04-30 16:33:00,
2013-04-30 11:42:00,70.0,63.0,29.48,SSW,195,4.0,12.0,78,0.00,,,0.00,,2013-04-30 16:42:00,
2013-04-30 11:52:00,71.0,63.0,29.48,ESE,122,6.0,11.0,76,0.00,,,0.00,,2013-04-30 16:52:00,
2013-04-30 12:02:00,71.0,63.0,29.49,East,95,4.0,11.0,76,0.00,,,0.00,,2013-04-30 17:02:00,
2013-04-30 12:12:00,71.0,63.0,29.49,East,95,4.0,11.0,76,0.00,,,0.00,,2013-04-30 17:12:00,
2013-04-30 12:22:00,71.0,63.0,29.49,SSE,148,6.0,10.0,76,0.00,,,0.00,,2013-04-30 17:22:00,
2013-04-30 12:32:00,71.0,63.0,29.49,South,174,7.0,14.0,76,0.00,,,0.00,,2013-04-30 17:32:00,
2013-04-30 12:42:00,71.0,63.0,29.49,South,174,7.0,14.0,76,0.00,,,0.00,,2013-04-30 17:42:00,
2013-04-30 12:52:00,73.0,64.0,29.48,SSE,157,7.0,13.0,74,0.00,,,0.00,,2013-04-30 17:52:00,
2013-04-30 13:01:00,74.0,64.0,29.48,ESE,117,5.0,13.0,70,0.00,,,0.00,,2013-04-30 18:01:00,
2013-04-30 13:11:00,74.0,64.0,29.48,ESE,117,5.0,13.0,70,0.00,,,0.00,,2013-04-30 18:11:00,
2013-04-30 13:22:00,74.0,64.0,29.48,SE,130,6.0,13.0,71,0.00,,,0.00,,2013-04-30 18:22:00,
2013-04-30 13:32:00,75.0,65.0,29.47,ESE,119,6.0,15.0,70,0.00,,,0.00,,2013-04-30 18:32:00,
2013-04-30 13:42:00,75.0,65.0,29.47,ESE,119,6.0,15.0,70,0.00,,,0.00,,2013-04-30 18:42:00,
2013-04-30 13:51:00,76.0,64.0,29.46,ESE,121,6.0,15.0,67,0.00,,,0.00,,2013-04-30 18:51:00,
2013-04-30 14:01:00,78.0,64.0,29.46,ESE,106,6.0,12.0,63,0.00,,,0.00,,2013-04-30 19:01:00,
2013-04-30 14:11:00,78.0,64.0,29.46,ESE,106,6.0,12.0,63,0.00,,,0.00,,2013-04-30 19:11:00,
2013-04-30 14:22:00,79.0,64.0,29.45,SE,125,5.0,12.0,61,0.00,,,0.00,,2013-04-30 19:22:00,
2013-04-30 14:32:00,80.0,64.0,29.45,NE,49,8.0,17.0,58,0.00,,,0.00,,2013-04-30 19:32:00,
2013-04-30 14:42:00,80.0,64.0,29.45,NE,49,8.0,17.0,58,0.00,,,0.00,,2013-04-30 19:42:00,
2013-04-30 14:52:00,81.0,64.0,29.44,NE,42,7.0,13.0,56,0.00,,,0.00,,2013-04-30 19:52:00,
2013-04-30 15:02:00,82.0,65.0,29.44,ESE,118,5.0,14.0,56,0.00,,,0.00,,2013-04-30 20:02:00,
2013-04-30 15:11:00,82.0,65.0,29.44,ESE,118,5.0,14.0,56,0.00,,,0.00,,2013-04-30 20:11:00,
2013-04-30 15:21:00,83.0,64.0,29.43,East,100,8.0,15.0,52,0.00,,,0.00,,2013-04-30 20:21:00,
2013-04-30 15:32:00,82.0,63.0,29.43,ESE,107,9.0,14.0,52,0.00,,,0.00,,2013-04-30 20:32:00,
2013-04-30 15:42:00,82.0,63.0,29.43,ESE,107,9.0,14.0,52,0.00,,,0.00,,2013-04-30 20:42:00,
2013-04-30 15:52:00,83.0,64.0,29.42,ESE,103,8.0,13.0,52,0.00,,,0.00,,2013-04-30 20:52:00,
2013-04-30 16:02:00,83.0,62.0,29.41,SE,146,6.0,14.0,50,0.00,,,0.00,,2013-04-30 21:02:00,
2013-04-30 16:11:00,83.0,62.0,29.41,SE,146,6.0,14.0,50,0.00,,,0.00,,2013-04-30 21:11:00,
2013-04-30 16:22:00,83.0,63.0,29.41,East,84,6.0,16.0,51,0.00,,,0.00,,2013-04-30 21:22:00,
2013-04-30 16:32:00,84.0,63.0,29.40,SSE,153,5.0,12.0,50,0.00,,,0.00,,2013-04-30 21:32:00,
2013-04-30 16:42:00,84.0,63.0,29.40,SSE,153,5.0,12.0,50,0.00,,,0.00,,2013-04-30 21:42:00,
2013-04-30 16:52:00,83.0,64.0,29.40,East,88,6.0,13.0,53,0.00,,,0.00,,2013-04-30 21:52:00,
2013-04-30 17:02:00,83.0,64.0,29.40,East,89,9.0,15.0,53,0.00,,,0.00,,2013-04-30 22:02:00,
2013-04-30 17:12:00,83.0,64.0,29.40,East,89,9.0,15.0,53,0.00,,,0.00,,2013-04-30 22:12:00,
2013-04-30 17:23:00,83.0,64.0,29.40,East,96,6.0,14.0,53,0.00,,,0.00,,2013-04-30 22:23:00,
2013-04-30 17:32:00,82.0,64.0,29.40,SSE,159,5.0,14.0,54,0.00,,,0.00,,2013-04-30 22:32:00,
2013-04-30 17:41:00,82.0,64.0,29.40,SSE,159,5.0,14.0,54,0.00,,,0.00,,2013-04-30 22:41:00,
2013-04-30 17:52:00,81.0,63.0,29.40,ESE,102,7.0,14.0,55,0.00,,,0.00,,2013-04-30 22:52:00,
2013-04-30 18:02:00,82.0,64.0,29.39,ESE,103,6.0,12.0,55,0.00,,,0.00,,2013-04-30 23:02:00,
2013-04-30 18:12:00,82.0,64.0,29.39,ESE,103,6.0,12.0,55,0.00,,,0.00,,2013-04-30 23:12:00,
2013-04-30 18:22:00,81.0,64.0,29.39,SE,135,6.0,13.0,56,0.00,,,0.00,,2013-04-30 23:22:00,
2013-04-30 18:32:00,81.0,64.0,29.39,East,95,6.0,13.0,57,0.00,,,0.00,,2013-04-30 23:32:00,
2013-04-30 18:42:00,81.0,64.0,29.39,East,95,6.0,13.0,57,0.00,,,0.00,,2013-04-30 23:42:00,
2013-04-30 18:52:00,80.0,64.0,29.39,SE,125,4.0,12.0,58,0.00,,,0.00,,2013-04-30 23:52:00,
2013-04-30 19:02:00,80.0,64.0,29.39,SE,134,6.0,13.0,58,0.00,,,0.00,,2013-05-01 00:02:00,
2013-04-30 19:11:00,80.0,64.0,29.39,SE,134,6.0,13.0,58,0.00,,,0.00,,2013-05-01 00:11:00,
2013-04-30 19:21:00,79.0,62.0,29.40,ESE,109,7.0,14.0,57,0.00,,,0.00,,2013-05-01 00:21:00,
2013-04-30 19:32:00,79.0,63.0,29.40,ESE,105,4.0,12.0,58,0.00,,,0.00,,2013-05-01 00:32:00,
2013-04-30 19:42:00,79.0,63.0,29.40,ESE,105,4.0,12.0,58,0.00,,,0.00,,2013-05-01 00:42:00,
2013-04-30 19:51:00,78.0,62.0,29.40,East,97,5.0,10.0,58,0.00,,,0.00,,2013-05-01 00:51:00,
2013-04-30 20:01:00,78.0,62.0,29.40,East,92,5.0,10.0,58,0.00,,,0.00,,2013-05-01 01:01:00,
2013-04-30 20:11:00,78.0,62.0,29.40,East,92,5.0,10.0,58,0.00,,,0.00,,2013-05-01 01:11:00,
2013-04-30 20:21:00,77.0,61.0,29.41,SSE,154,2.0,9.0,58,0.00,,,0.00,,2013-05-01 01:21:00,
2013-04-30 20:32:00,76.0,61.0,29.40,East,95,2.0,7.0,60,0.00,,,0.00,,2013-05-01 01:32:00,
2013-04-30 20:41:00,76.0,61.0,29.40,East,95,2.0,7.0,60,0.00,,,0.00,,2013-05-01 01:41:00,
2013-04-30 20:52:00,75.0,62.0,29.40,ESE,114,3.0,7.0,64,0.00,,,0.00,,2013-05-01 01:52:00,
2013-04-30 21:02:00,75.0,63.0,29.41,East,98,2.0,6.0,66,0.00,,,0.00,,2013-05-01 02:02:00,
2013-04-30 21:11:00,75.0,63.0,29.41,East,98,2.0,6.0,66,0.00,,,0.00,,2013-05-01 02:11:00,
2013-04-30 21:21:00,74.0,63.0,29.41,ESE,104,1.0,6.0,68,0.00,,,0.00,,2013-05-01 02:21:00,
2013-04-30 21:32:00,73.0,62.0,29.42,East,97,1.0,4.0,69,0.00,,,0.00,,2013-05-01 02:32:00,
2013-04-30 21:42:00,73.0,62.0,29.42,East,97,1.0,4.0,69,0.00,,,0.00,,2013-05-01 02:42:00,
2013-04-30 21:52:00,73.0,63.0,29.42,ESE,119,4.0,10.0,71,0.00,,,0.00,,2013-05-01 02:52:00,
2013-04-30 22:01:00,73.0,63.0,29.43,ESE,120,4.0,9.0,70,0.00,,,0.00,,2013-05-01 03:01:00,
2013-04-30 22:11:00,73.0,63.0,29.43,ESE,120,4.0,9.0,70,0.00,,,0.00,,2013-05-01 03:11:00,
2013-04-30 22:21:00,73.0,63.0,29.44,SE,136,5.0,10.0,71,0.00,,,0.00,,2013-05-01 03:21:00,
2013-04-30 22:33:00,72.0,62.0,29.44,ESE,112,4.0,10.0,72,0.00,,,0.00,,2013-05-01 03:33:00,
2013-04-30 22:43:00,72.0,62.0,29.44,ESE,112,4.0,10.0,72,0.00,,,0.00,,2013-05-01 03:43:00,
2013-04-30 22:53:00,72.0,63.0,29.45,SE,133,5.0,11.0,73,0.00,,,0.00,,2013-05-01 03:53:00,
2013-04-30 23:03:00,72.0,63.0,29.46,ESE,103,5.0,12.0,74,0.00,,,0.00,,2013-05-01 04:03:00,
2013-04-30 23:12:00,72.0,63.0,29.46,ESE,103,5.0,12.0,74,0.00,,,0.00,,2013-05-01 04:12:00,
2013-04-30 23:22:00,72.0,63.0,29.46,ESE,111,8.0,14.0,74,0.00,,,0.00,,2013-05-01 04:22:00,
2013-04-30 23:32:00,72.0,64.0,29.46,East,96,4.0,12.0,75,0.00,,,0.00,,2013-05-01 04:32:00,
2013-04-30 23:42:00,72.0,64.0,29.46,East,96,4.0,12.0,75,0.00,,,0.00,,2013-05-01 04:42:00,
2013-04-30 23:52:00,71.0,62.0,29.46,East,97,3.0,12.0,74,0.00,,,0.00,,2013-05-01 04:52:00,